OK3MS-5 Weather Reports


time (UTC)temp
F
wind
direction
speed
knots
gust
knots
rain 1hr
in
rain 24hr
in
rain mn
in
humidity
%
barometer
mb
20260905223504 58 264 0.9 0.9 0.00 0.23 0.00 68 1023.2
20260905223008 59 264 0.9 1.7 0.00 0.23 0.00 68 1023.3
20260905222503 58 263 1.7 2.6 0.00 0.23 0.00 69 1023.3
20260905222004 59 228 0.9 1.7 0.00 0.23 0.00 69 1023.2
20260905221504 59 228 0.0 1.7 0.00 0.23 0.00 68 1023.0
20260905221009 59 228 0.0 1.7 0.00 0.23 0.00 68 1023.1
20260905220506 59 228 0.0 1.7 0.00 0.23 0.00 68 1023.1
20260905220009 60 228 0.9 0.9 0.23 0.23 0.23 68 1023.1
20260905215508 60 228 0.0 0.9 0.23 0.23 0.23 67 1022.9
20260905215003 60 228 0.0 0.9 0.23 0.23 0.23 67 1022.9
20260905214508 60 228 0.0 0.9 0.23 0.23 0.23 66 1022.8
20260905214003 60 242 0.9 0.9 0.23 0.23 0.23 66 1022.8
20260905213510 60 242 0.9 0.9 0.23 0.23 0.23 66 1022.7
20260905213003 60 242 0.0 0.0 0.23 0.23 0.23 65 1022.7
20260905212504 61 242 0.0 0.9 0.23 0.23 0.23 65 1022.6
20260905212003 61 258 0.0 0.9 0.23 0.23 0.23 63 1022.5
20260905211503 61 258 0.0 1.7 0.23 0.23 0.23 63 1022.5
20260905211002 62 254 0.0 0.0 0.23 0.23 0.23 63 1022.2
20260905210502 62 254 0.0 0.9 0.23 0.23 0.23 62 1022.2
20260905210003 62 254 0.0 0.0 0.00 0.23 0.23 63 1022.2
20260905205503 62 254 0.0 0.9 0.00 0.23 0.23 62 1022.2
20260905205009 62 254 0.0 1.7 0.00 0.23 0.23 62 1022.1
20260905204503 62 246 0.0 1.7 0.00 0.23 0.23 63 1022.1
20260905204007 62 246 0.0 1.7 0.00 0.23 0.23 63 1022.1
20260905203503 62 234 0.0 1.7 0.00 0.23 0.23 66 1021.9
20260905203004 62 218 0.0 0.9 0.00 0.23 0.23 66 1022.0
20260905202503 63 218 0.0 1.7 0.00 0.23 0.23 64 1022.0
20260905202003 63 256 0.0 1.7 0.00 0.23 0.23 65 1021.9
20260905201504 63 253 0.9 0.9 0.00 0.23 0.23 63 1021.7
20260905201004 63 251 0.9 1.7 0.00 0.23 0.23 63 1021.6
20260905200503 63 277 0.0 1.7 0.00 0.23 0.23 64 1021.6
20260905200004 63 263 0.0 1.7 0.00 0.23 0.23 63 1021.5
20260905195508 64 263 0.0 0.9 0.00 0.23 0.23 63 1021.4
20260905195005 64 268 0.0 0.0 0.00 0.23 0.23 62 1021.2
20260905194508 64 261 0.0 0.0 0.00 0.23 0.23 62 1021.2
20260905194003 64 261 0.0 0.9 0.00 0.23 0.23 60 1021.0
20260905193504 65 264 0.0 0.9 0.00 0.23 0.23 59 1020.9
20260905193004 65 262 2.6 3.5 0.00 0.23 0.23 58 1020.8
20260905192507 65 268 1.7 4.3 0.00 0.23 0.23 58 1020.6
20260905192004 65 271 0.0 5.2 0.00 0.23 0.23 59 1020.5
20260905191508 65 222 0.9 4.3 0.00 0.23 0.23 58 1020.5
20260905191005 65 255 2.6 4.3 0.00 0.23 0.23 59 1020.4
20260905190503 65 258 2.6 6.1 0.00 0.23 0.23 60 1020.3
20260905190007 65 270 0.9 4.3 0.00 0.23 0.23 61 1020.3
20260905185504 65 266 0.0 3.5 0.00 0.23 0.23 62 1020.3
20260905185004 65 266 0.0 3.5 0.00 0.23 0.23 62 1020.4
20260905184506 65 234 1.7 1.7 0.00 0.23 0.23 63 1020.3
20260905184004 65 234 1.7 1.7 0.00 0.23 0.23 63 1020.3
20260905183502 65 234 1.7 1.7 0.00 0.23 0.23 63 1020.1
20260905183006 65 233 0.0 0.9 0.00 0.23 0.23 63 1020.0
20260905182505 65 234 0.9 0.9 0.00 0.23 0.23 63 1019.9
20260905182004 65 234 2.6 2.6 0.00 0.23 0.23 62 1019.8
20260905181504 66 240 0.0 0.9 0.00 0.23 0.23 63 1019.7
20260905181006 66 240 0.0 0.9 0.00 0.23 0.23 62 1019.6
20260905180506 66 240 0.0 0.9 0.00 0.23 0.23 62 1019.5
20260905180004 66 240 0.9 0.9 0.00 0.23 0.23 61 1019.5
20260905175505 66 240 0.9 1.7 0.00 0.23 0.23 61 1019.3
20260905175002 67 240 1.7 1.7 0.00 0.23 0.23 61 1019.2
20260905174504 67 252 0.0 2.6 0.00 0.23 0.23 61 1019.2
20260905174003 67 264 0.9 2.6 0.00 0.23 0.23 61 1019.1
20260905173503 67 264 0.0 5.2 0.00 0.23 0.23 60 1019.0
20260905173002 67 272 4.3 5.2 0.00 0.23 0.23 59 1018.9
20260905172505 68 275 0.9 3.5 0.00 0.23 0.23 59 1018.9
20260905172004 68 254 1.7 4.3 0.00 0.23 0.23 59 1018.8
20260905171505 68 263 0.9 6.1 0.00 0.23 0.23 59 1018.6
20260905171004 68 5 0.9 2.6 0.00 0.23 0.23 60 1018.6
20260905170503 69 223 3.5 6.1 0.00 0.23 0.23 59 1018.5
20260905170007 69 213 0.9 2.6 0.00 0.23 0.23 58 1018.4
20260905165504 69 213 1.7 7.0 0.00 0.23 0.23 57 1018.4
20260905165002 69 252 4.3 5.2 0.00 0.23 0.23 57 1018.4
20260905164502 69 275 0.9 7.8 0.00 0.23 0.23 57 1018.4
20260905164003 69 264 0.9 5.2 0.00 0.23 0.23 57 1018.2
20260905163506 69 278 0.9 7.0 0.00 0.23 0.23 57 1018.3
20260905163004 69 262 2.6 7.0 0.00 0.23 0.23 57 1018.2
20260905162504 70 240 3.5 10.4 0.00 0.23 0.23 55 1018.2
20260905162004 71 252 4.3 7.0 0.00 0.23 0.23 54 1018.1
20260905161503 71 234 0.9 6.1 0.00 0.23 0.23 54 1018.0
20260905161004 71 247 1.7 6.1 0.00 0.23 0.23 54 1017.9
20260905160504 71 274 7.8 8.7 0.00 0.23 0.23 52 1017.8
20260905160006 70 264 2.6 7.0 0.00 0.23 0.23 54 1017.9
20260905155504 69 258 0.0 7.0 0.00 0.23 0.23 56 1018.0
20260905155005 69 254 0.0 5.2 0.00 0.23 0.23 56 1018.0
20260905154504 70 270 4.3 7.0 0.00 0.23 0.23 54 1017.8
20260905154003 71 274 5.2 7.0 0.00 0.23 0.23 52 1017.7
20260905153508 72 276 7.0 11.3 0.00 0.23 0.23 51 1017.7
20260905153006 72 276 2.6 8.7 0.00 0.23 0.23 50 1017.7
20260905152503 72 259 6.1 6.1 0.00 0.23 0.23 50 1017.7
20260905152007 72 199 6.1 7.0 0.00 0.23 0.23 51 1017.6
20260905151502 72 252 5.2 6.1 0.00 0.23 0.23 51 1017.6
20260905151003 72 202 1.7 4.3 0.00 0.23 0.23 52 1017.6
20260905150503 72 258 0.0 12.2 0.00 0.23 0.23 53 1017.7
20260905150004 71 304 7.0 9.6 0.00 0.23 0.23 50 1017.6
20260905145505 71 274 0.9 10.4 0.00 0.23 0.23 52 1017.7
20260905145003 71 255 1.7 9.6 0.00 0.23 0.23 52 1017.7
20260905144504 71 318 6.1 12.2 0.00 0.23 0.23 52 1017.7
20260905144003 70 312 2.6 13.0 0.00 0.23 0.23 52 1017.7
20260905143502 71 222 7.8 14.8 0.00 0.23 0.23 50 1017.7
20260905143007 71 304 7.8 11.3 0.00 0.23 0.23 51 1017.9
20260905142505 72 266 6.1 12.2 0.00 0.23 0.23 51 1017.8
20260905142003 71 258 1.7 7.0 0.00 0.23 0.23 52 1018.0
20260905141505 70 259 7.0 9.6 0.00 0.23 0.23 52 1018.0
20260905141003 70 234 6.1 14.8 0.00 0.23 0.23 53 1018.1
20260905140503 70 264 0.9 7.8 0.00 0.23 0.23 52 1018.1
20260905140004 69 249 3.5 11.3 0.00 0.23 0.23 53 1018.2
20260905135505 70 197 9.6 11.3 0.00 0.23 0.23 53 1018.0
20260905135003 70 276 7.8 7.8 0.00 0.23 0.23 53 1018.1
20260905134504 71 288 5.2 11.3 0.00 0.23 0.23 51 1018.1
20260905134003 70 242 1.7 9.6 0.00 0.23 0.23 55 1018.1
20260905133503 70 288 7.0 13.0 0.00 0.23 0.23 54 1018.1
20260905133003 70 234 5.2 10.4 0.00 0.23 0.23 53 1018.1
20260905132503 70 331 2.6 8.7 0.00 0.23 0.23 53 1018.2
20260905132003 70 276 7.8 13.0 0.00 0.23 0.23 54 1018.2
20260905131504 71 264 11.3 12.2 0.00 0.23 0.23 52 1018.3
20260905131006 70 230 5.2 7.8 0.00 0.23 0.23 54 1018.3
20260905130503 69 242 1.7 13.0 0.00 0.23 0.23 55 1018.5
20260905130003 70 240 1.7 10.4 0.00 0.23 0.23 57 1018.5
20260905125504 69 270 7.0 7.8 0.00 0.23 0.23 56 1018.5
20260905125005 68 252 5.2 16.5 0.00 0.23 0.23 58 1018.6
20260905124508 69 258 4.3 9.6 0.00 0.23 0.23 58 1018.5
20260905124003 69 276 7.0 7.0 0.00 0.23 0.23 61 1018.5
20260905123503 69 288 2.6 6.1 0.00 0.23 0.23 60 1018.5
20260905123006 68 246 6.1 7.0 0.00 0.23 0.23 60 1018.7
20260905122504 67 255 1.7 10.4 0.00 0.23 0.23 66 1018.9
20260905122004 67 280 7.8 7.8 0.00 0.23 0.23 64 1019.0
20260905121503 67 245 0.9 7.8 0.00 0.23 0.23 64 1019.0
20260905121006 67 292 2.6 7.8 0.00 0.23 0.23 64 1019.0
20260905120505 67 270 4.3 13.9 0.00 0.23 0.23 63 1019.1
20260905120003 67 244 5.2 7.0 0.00 0.23 0.23 65 1019.1
20260905115502 67 246 5.2 12.2 0.00 0.23 0.23 62 1019.0
20260905115005 68 275 1.7 6.1 0.00 0.23 0.23 63 1018.8
20260905114504 68 294 0.9 7.8 0.00 0.23 0.23 62 1018.6
20260905114003 67 266 2.6 7.0 0.00 0.23 0.23 65 1018.7
20260905113504 67 276 0.9 7.8 0.00 0.23 0.23 65 1018.8
20260905113004 69 234 2.6 7.0 0.00 0.23 0.23 64 1018.8
20260905112503 69 281 0.9 2.6 0.00 0.23 0.23 64 1018.7
20260905112004 69 246 0.9 4.3 0.00 0.23 0.23 62 1018.6
20260905111504 68 282 0.9 2.6 0.00 0.23 0.23 64 1018.6
20260905111004 67 265 1.7 5.2 0.00 0.23 0.23 64 1018.8
20260905110504 67 276 3.5 6.1 0.00 0.23 0.23 67 1019.0
20260905110002 66 240 1.7 9.6 0.00 0.23 0.23 64 1019.0
20260905105504 67 276 3.5 7.0 0.00 0.23 0.23 65 1018.9
20260905105003 68 270 1.7 8.7 0.00 0.23 0.23 64 1018.8
20260905104506 68 246 7.8 10.4 0.00 0.23 0.23 62 1018.8
20260905104003 67 220 1.7 7.0 0.00 0.23 0.23 62 1018.9
20260905103506 67 264 11.3 13.0 0.00 0.23 0.23 62 1019.0
20260905103003 65 252 1.7 7.0 0.00 0.23 0.23 64 1019.2
20260905102505 65 259 0.9 7.8 0.00 0.23 0.23 67 1019.3
20260905102004 65 282 3.5 4.3 0.00 0.23 0.23 68 1019.2
20260905101503 65 252 0.0 3.5 0.00 0.23 0.23 67 1019.2
20260905101004 64 258 0.9 2.6 0.00 0.23 0.23 67 1019.3
20260905100503 64 228 0.9 2.6 0.00 0.23 0.23 70 1019.5
20260905100003 64 294 1.7 2.6 0.00 0.23 0.23 69 1019.5
20260905095502 64 237 1.7 10.4 0.00 0.23 0.23 71 1019.5
20260905095004 64 241 6.1 8.7 0.00 0.23 0.23 73 1019.6
20260905094503 64 234 1.7 11.3 0.00 0.23 0.23 72 1019.6
20260905094004 64 242 0.9 7.0 0.00 0.23 0.23 72 1019.6
20260905093504 63 264 0.9 9.6 0.00 0.23 0.23 75 1019.6
20260905093002 63 271 0.9 1.7 0.00 0.23 0.23 78 1019.7
20260905092502 62 264 1.7 5.2 0.00 0.23 0.23 80 1019.8
20260905092004 62 252 1.7 6.1 0.00 0.23 0.23 78 1019.8
20260905091504 62 249 4.3 7.0 0.00 0.23 0.23 80 1019.8
20260905091005 62 276 5.2 8.7 0.00 0.23 0.23 80 1019.7
20260905090505 62 240 7.8 9.6 0.00 0.23 0.23 80 1019.8
20260905090005 61 253 0.9 7.8 0.00 0.23 0.23 84 1019.8
20260905085505 62 264 1.7 2.6 0.00 0.23 0.23 81 1019.7
20260905085004 62 266 0.9 1.7 0.00 0.23 0.23 83 1019.7
20260905084502 61 186 1.7 7.0 0.00 0.23 0.23 83 1019.6
20260905084004 61 270 0.0 6.1 0.00 0.23 0.23 87 1019.6
20260905083504 60 240 2.6 5.2 0.00 0.23 0.23 88 1019.8
20260905083003 60 228 0.0 1.7 0.00 0.23 0.23 88 1019.8
20260905082505 59 234 0.9 7.8 0.00 0.23 0.23 89 1019.7
20260905082003 60 248 1.7 2.6 0.00 0.23 0.23 89 1019.6
20260905081505 59 228 1.7 2.6 0.00 0.23 0.23 90 1019.7
20260905081005 58 253 0.9 1.7 0.00 0.23 0.23 92 1019.6
20260905080505 58 263 1.7 1.7 0.00 0.23 0.23 93 1019.8
20260905080002 58 269 0.0 5.2 0.00 0.23 0.23 94 1019.8
20260905075503 57 252 1.7 3.5 0.00 0.23 0.23 93 1019.9
20260905075004 57 232 0.0 3.5 0.00 0.23 0.23 94 1019.9
20260905074503 57 282 2.6 5.2 0.00 0.23 0.23 94 1019.7
20260905074006 57 213 0.0 1.7 0.00 0.23 0.23 95 1019.6
20260905073505 57 213 0.9 0.9 0.00 0.23 0.23 96 1019.6
20260905073004 57 213 0.0 5.2 0.00 0.23 0.23 95 1019.5
20260905072504 57 266 1.7 1.7 0.01 0.23 0.23 95 1019.2
20260905072005 57 298 0.0 1.7 0.01 0.23 0.23 96 1019.0
20260905071503 57 300 0.0 0.0 0.01 0.23 0.23 97 1018.9
20260905071005 56 300 0.0 1.7 0.02 0.23 0.23 97 1019.0
20260905070503 56 306 1.7 6.1 0.03 0.23 0.23 97 1019.0
20260905070002 56 228 0.0 5.2 0.03 0.23 0.23 97 1019.2
20260905065504 56 244 2.6 4.3 0.03 0.23 0.23 97 1019.2
20260905065005 56 150 0.0 1.7 0.04 0.23 0.23 97 1018.9
20260905064506 56 264 2.6 2.6 0.05 0.23 0.23 97 1019.3
20260905064004 56 186 0.9 4.3 0.06 0.23 0.23 97 1018.9
20260905063502 56 180 6.1 6.1 0.07 0.23 0.23 97 1018.5
20260905063002 56 228 0.0 2.6 0.08 0.23 0.23 97 1019.2
20260905062505 56 254 0.0 0.0 0.08 0.22 0.22 97 1019.2
20260905062004 56 266 0.0 0.9 0.09 0.22 0.22 97 1019.1
20260905061504 56 272 0.0 0.9 0.10 0.22 0.22 97 1019.2
20260905061005 56 168 0.9 1.7 0.10 0.21 0.21 97 1019.0
20260905060503 56 174 0.0 1.7 0.11 0.21 0.21 97 1019.1
20260905060003 56 174 0.0 1.7 0.11 0.20 0.20 97 1019.3
20260905055503 56 192 0.0 1.7 0.11 0.20 0.20 97 1019.1
20260905055009 56 257 0.0 0.0 0.11 0.19 0.19 97 1019.2
20260905054503 56 257 0.0 0.0 0.11 0.18 0.18 97 1019.4
20260905054008 56 257 0.0 0.0 0.11 0.17 0.17 97 1019.6
20260905053502 56 184 0.0 0.9 0.11 0.16 0.16 97 1019.8
20260905053003 56 277 0.0 0.0 0.10 0.15 0.15 97 1019.7
20260905052502 56 277 0.0 0.0 0.09 0.14 0.14 96 1019.6
20260905052003 56 277 0.0 0.0 0.08 0.13 0.13 96 1019.4
20260905051503 56 277 0.0 0.0 0.07 0.12 0.12 96 1019.4
20260905051003 57 277 0.0 0.0 0.06 0.11 0.11 95 1019.0
20260905050510 57 277 0.0 0.0 0.05 0.10 0.10 95 1018.9
20260905050003 57 278 0.0 0.9 0.04 0.09 0.09 94 1019.1
20260905045506 57 279 0.0 0.9 0.04 0.09 0.09 93 1018.8
20260905045003 57 279 0.0 0.0 0.03 0.08 0.08 93 1018.8
20260905044508 57 279 0.0 0.0 0.02 0.07 0.07 94 1018.9
20260905044004 57 279 0.0 0.0 0.01 0.06 0.06 94 1018.7
20260905043510 57 279 0.0 0.0 0.01 0.05 0.05 93 1018.4
20260905043004 57 279 0.0 0.0 0.01 0.05 0.05 93 1018.0
20260905042505 58 279 0.0 0.0 0.01 0.05 0.05 91 1017.8
20260905042007 58 279 0.0 0.0 0.02 0.05 0.05 90 1017.6
20260905041505 58 279 0.0 0.0 0.04 0.05 0.05 90 1018.0
20260905041008 58 279 0.0 0.0 0.05 0.05 0.05 90 1018.4
20260905040503 58 279 0.0 0.0 0.05 0.05 0.05 90 1018.3
20260905040008 58 279 0.0 0.0 0.05 0.05 0.05 88 1018.0
20260905035503 58 288 0.0 0.0 0.05 0.05 0.05 89 1017.8
20260905035009 58 288 0.0 0.0 0.05 0.05 0.05 89 1017.7
20260905034503 58 288 0.0 0.0 0.05 0.05 0.05 87 1017.3
20260905034004 58 288 0.0 0.0 0.05 0.05 0.05 85 1017.1
20260905033504 58 288 0.0 0.0 0.04 0.04 0.04 89 1017.5
20260905033004 58 288 0.0 0.9 0.04 0.04 0.04 88 1017.3
20260905032509 59 288 0.0 0.0 0.04 0.04 0.04 86 1016.9
20260905032003 60 288 0.0 5.2 0.03 0.03 0.03 83 1017.0
20260905031503 61 270 0.0 0.9 0.01 0.01 0.01 79 1016.9
20260905031008 62 270 0.0 2.6 0.00 0.00 0.00 74 1016.9
20260905030503 62 297 0.0 1.7 0.00 0.00 0.00 74 1016.2
20260905030007 62 297 0.0 1.7 0.00 0.00 0.00 74 1016.0
20260905025505 62 297 0.9 1.7 0.00 0.00 0.00 74 1016.1
20260905025009 62 228 0.0 0.9 0.00 0.00 0.00 75 1016.0
20260905024503 62 228 0.0 0.9 0.00 0.00 0.00 73 1016.1
20260905024003 62 324 0.9 1.7 0.00 0.00 0.00 73 1015.9
20260905023503 62 319 0.0 0.9 0.00 0.00 0.00 76 1015.7
20260905023007 63 319 0.0 0.9 0.00 0.00 0.00 74 1015.7
20260905022502 63 319 0.9 0.9 0.00 0.00 0.00 74 1015.7
20260905022004 64 319 0.0 1.7 0.00 0.00 0.00 70 1015.6
20260905021503 64 320 0.0 0.9 0.00 0.00 0.00 70 1015.9
20260905021002 64 265 0.0 6.1 0.00 0.00 0.00 69 1015.2
20260905020503 64 1 0.0 1.7 0.00 0.00 0.00 69 1015.2
20260905020003 64 355 5.2 7.8 0.00 0.00 0.00 68 1014.9
20260905015503 64 352 1.7 2.6 0.00 0.00 0.00 69 1015.0
20260905015008 64 18 0.9 2.6 0.00 0.00 0.00 70 1015.2
20260905014503 64 348 1.7 7.0 0.00 0.00 0.00 70 1014.9
20260905014007 64 3 0.0 6.1 0.00 0.00 0.00 70 1014.9
20260905013502 64 4 7.8 9.6 0.00 0.00 0.00 70 1014.8
20260905013002 64 348 0.9 11.3 0.00 0.00 0.00 71 1014.8
20260905012508 65 333 5.2 12.2 0.00 0.00 0.00 71 1014.7
20260905012005 65 0 7.0 13.9 0.00 0.00 0.00 71 1014.6
20260905011503 65 12 9.6 14.8 0.00 0.00 0.00 71 1014.4
20260905011003 65 349 9.6 14.8 0.00 0.00 0.00 72 1014.3
20260905010505 65 6 12.2 20.0 0.00 0.00 0.00 72 1014.1
20260905010003 66 336 8.7 18.2 0.00 0.00 0.00 72 1014.0
20260905005510 67 350 12.2 17.4 0.00 0.00 0.00 71 1013.6
20260905005004 69 350 14.8 19.1 0.00 0.00 0.00 68 1013.3
20260905004510 72 324 7.8 7.8 0.00 0.00 0.00 64 1012.4
20260905004004 71 281 0.0 5.2 0.00 0.00 0.00 64 1012.1
20260905003504 70 316 0.9 2.6 0.00 0.00 0.00 65 1012.1
20260905003006 70 239 0.9 3.5 0.00 0.00 0.00 66 1012.1
20260905002508 69 192 0.0 0.9 0.00 0.00 0.00 66 1012.1
20260905002005 68 192 0.0 0.0 0.00 0.00 0.00 68 1012.2
20260905001505 67 192 0.0 0.0 0.00 0.00 0.00 69 1012.2
20260905001003 66 192 0.0 0.0 0.00 0.00 0.00 72 1012.3
20260905000504 66 192 0.0 0.0 0.00 0.00 0.00 73 1012.2
20260905000003 66 192 0.0 0.0 0.00 0.00 0.00 74 1012.2
20260904235503 65 192 0.0 0.0 0.00 0.00 0.00 75 1012.2
20260904234503 65 192 0.0 0.0 0.00 0.00 0.00 75 1012.1
20260904234007 65 192 0.0 0.0 0.00 0.00 0.00 75 1012.1
20260904233505 66 192 0.0 0.0 0.00 0.00 0.00 75 1012.1
20260904233005 66 192 0.0 0.0 0.00 0.00 0.00 75 1012.0
20260904232507 66 192 0.0 0.0 0.00 0.00 0.00 74 1011.9
20260904232006 67 192 0.0 0.0 0.00 0.00 0.00 73 1011.8
20260904231503 67 192 0.0 0.0 0.00 0.00 0.00 73 1011.8
20260904231004 67 192 0.0 0.0 0.00 0.00 0.00 73 1011.8
20260904230504 67 192 0.0 0.0 0.00 0.00 0.00 72 1011.7
20260904230003 67 192 0.0 0.0 0.00 0.00 0.00 71 1011.5
20260904225504 67 192 0.0 0.0 0.00 0.00 0.00 71 1011.6
20260904225008 67 192 0.0 0.0 0.00 0.00 0.00 71 1011.6
20260904224505 68 192 0.0 0.0 0.00 0.00 0.00 70 1011.5
20260904224009 68 192 0.0 0.0 0.00 0.00 0.00 70 1011.4